CW8306 Weather Reports


Display with metric or nautical units.
time (UTC)temp
F
wind
direction
speed
MPH
gust
MPH
rain 1hr
in
rain 24hr
in
rain mn
in
humidity
%
barometer
mb
20260905001627 79 190 1.0 3.0 0.00 0.00 0.00 64 1016.2
20260905001126 79 216 0.0 2.0 0.00 0.00 0.00 63 1016.4
20260905000621 79 202 0.0 2.0 0.00 0.00 0.00 63 1016.2
20260905000118 79 197 0.0 2.0 0.00 0.00 0.00 63 1016.3
20260904235617 80 186 2.0 2.0 0.00 0.00 0.00 62 1016.1
20260904235116 81 194 1.0 2.0 0.00 0.00 0.00 60 1016.5
20260904234612 80 212 0.0 1.0 0.00 0.00 0.00 61 1016.2
20260904234107 80 208 1.0 2.0 0.00 0.00 0.00 61 1016.5
20260904233603 80 174 2.0 3.0 0.00 0.00 0.00 61 1016.3
20260904233059 80 212 0.0 2.0 0.00 0.00 0.00 61 1016.2
20260904232555 80 218 2.0 2.0 0.00 0.00 0.00 61 1016.1
20260904232051 80 192 1.0 3.0 0.00 0.00 0.00 60 1016.5
20260904231546 80 206 1.0 2.0 0.00 0.00 0.00 60 1015.9
20260904231041 81 154 2.0 2.0 0.00 0.00 0.00 60 1016.2
20260904230540 81 221 1.0 2.0 0.00 0.00 0.00 61 1016.3
20260904230036 82 244 0.0 2.0 0.00 0.00 0.00 61 1016.3
20260904225534 81 223 2.0 2.0 0.00 0.00 0.00 60 1016.1
20260904225033 82 215 0.0 1.0 0.00 0.00 0.00 60 1016.2
20260904224529 81 264 1.0 2.0 0.00 0.00 0.00 60 1016.2
20260904224028 81 210 0.0 1.0 0.00 0.00 0.00 61 1016.1
20260904223527 80 199 1.0 2.0 0.00 0.00 0.00 61 1016.2
20260904223024 81 220 1.0 2.0 0.00 0.00 0.00 61 1016.1
20260904222519 80 209 1.0 5.0 0.00 0.00 0.00 63 1016.1
20260904222014 81 204 0.0 5.0 0.00 0.00 0.00 61 1016.2
20260904221509 81 220 0.0 1.0 0.00 0.00 0.00 64 1015.9
20260904221003 81 202 0.0 2.0 0.00 0.00 0.00 62 1015.9
20260904220503 80 179 2.0 2.0 0.00 0.00 0.00 62 1016.3
20260904215958 80 171 0.0 5.0 0.00 0.00 0.00 64 1015.9
20260904215453 79 198 0.0 1.0 0.00 0.00 0.00 64 1016.1
20260904214949 79 220 1.0 1.0 0.00 0.00 0.00 65 1015.8
20260904214444 79 198 1.0 2.0 0.00 0.00 0.00 65 1015.8
20260904213939 79 40 2.0 2.0 0.00 0.00 0.00 64 1015.7
20260904213433 78 224 1.0 5.0 0.00 0.00 0.00 66 1015.7
20260904212929 78 218 0.0 3.0 0.00 0.00 0.00 68 1015.7
20260904212428 78 208 2.0 5.0 0.00 0.00 0.00 67 1015.9
20260904211924 79 207 0.0 2.0 0.00 0.00 0.00 65 1016.1
20260904211418 78 181 1.0 2.0 0.00 0.00 0.00 66 1015.9
20260904210914 78 214 1.0 6.0 0.00 0.00 0.00 65 1015.9
20260904210413 78 198 0.0 1.0 0.00 0.00 0.00 66 1015.8
20260904205909 78 211 0.0 5.0 0.00 0.00 0.00 68 1016.1
20260904205404 77 336 2.0 3.0 0.00 0.00 0.00 68 1016.1
20260904204902 77 200 2.0 2.0 0.00 0.00 0.00 68 1016.2
20260904204357 77 196 1.0 3.0 0.00 0.00 0.00 68 1016.2
20260904203853 78 260 0.0 2.0 0.00 0.00 0.00 67 1016.1
20260904203349 78 50 4.0 5.0 0.00 0.00 0.00 67 1016.2
20260904202844 78 203 1.0 3.0 0.00 0.00 0.00 68 1016.3
20260904202341 77 214 1.0 1.0 0.00 0.00 0.00 69 1016.3
20260904201836 77 205 1.0 2.0 0.00 0.00 0.00 69 1016.4
20260904201336 76 192 1.0 2.0 0.00 0.00 0.00 70 1016.5
20260904200832 77 176 2.0 2.0 0.00 0.00 0.00 69 1016.4
20260904200330 77 201 2.0 3.0 0.00 0.00 0.00 69 1016.4
20260904195825 76 208 2.0 3.0 0.00 0.00 0.00 70 1016.4
20260904195323 76 260 1.0 1.0 0.00 0.00 0.00 69 1016.5
20260904194818 76 159 3.0 5.0 0.00 0.00 0.00 69 1016.3
20260904194317 76 154 1.0 3.0 0.00 0.00 0.00 69 1016.4
20260904193813 76 128 2.0 3.0 0.00 0.00 0.00 70 1016.5
20260904193308 76 223 0.0 2.0 0.00 0.00 0.00 69 1016.5
20260904192804 77 134 2.0 2.0 0.00 0.00 0.00 69 1016.6
20260904192259 76 216 2.0 3.0 0.00 0.00 0.00 70 1016.7
20260904191755 76 155 1.0 2.0 0.00 0.00 0.00 71 1016.9
20260904191252 75 217 3.0 3.0 0.00 0.00 0.00 71 1016.7
20260904190748 75 190 2.0 7.0 0.00 0.00 0.00 71 1016.8
20260904190243 76 211 1.0 2.0 0.00 0.00 0.00 72 1016.9
20260904185739 75 216 0.0 3.0 0.00 0.00 0.00 73 1016.8
20260904185234 75 211 1.0 5.0 0.00 0.00 0.00 73 1016.8
20260904184733 76 208 2.0 3.0 0.00 0.00 0.00 72 1017.1
20260904184229 75 169 3.0 5.0 0.00 0.00 0.00 73 1016.9
20260904183725 75 221 2.0 3.0 0.00 0.00 0.00 73 1016.8
20260904183225 75 161 2.0 3.0 0.00 0.00 0.00 73 1016.8
20260904182720 74 166 1.0 2.0 0.00 0.00 0.00 74 1016.8
20260904182215 75 207 2.0 5.0 0.00 0.00 0.00 73 1016.5
20260904181711 74 187 0.0 3.0 0.00 0.00 0.00 74 1016.4
20260904181210 74 215 1.0 2.0 0.00 0.00 0.00 74 1016.7
20260904180706 75 195 2.0 3.0 0.00 0.00 0.00 74 1016.5
20260904180201 74 201 1.0 5.0 0.00 0.00 0.00 75 1016.4
20260904175700 74 212 4.0 6.0 0.00 0.00 0.00 74 1016.3
20260904175159 73 122 3.0 3.0 0.00 0.00 0.00 76 1016.3
20260904174653 74 192 1.0 3.0 0.00 0.00 0.00 76 1016.5
20260904174149 74 192 2.0 3.0 0.00 0.00 0.00 75 1016.2
20260904173645 73 191 1.0 3.0 0.00 0.00 0.00 77 1016.5
20260904173139 73 155 0.0 5.0 0.00 0.00 0.00 77 1016.3
20260904172636 73 180 3.0 5.0 0.00 0.00 0.00 76 1016.4
20260904172135 73 177 3.0 6.0 0.00 0.00 0.00 75 1016.1
20260904171631 73 130 1.0 5.0 0.00 0.00 0.00 76 1016.3
20260904171126 73 61 1.0 2.0 0.00 0.00 0.00 75 1016.2
20260904170622 73 39 2.0 3.0 0.00 0.00 0.00 74 1016.2
20260904170118 73 154 0.0 2.0 0.00 0.00 0.00 76 1016.4
20260904165616 73 101 1.0 3.0 0.00 0.00 0.00 77 1016.1
20260904165116 72 72 2.0 5.0 0.00 0.00 0.00 77 1015.9
20260904164611 72 221 0.0 1.0 0.00 0.00 0.00 77 1016.2
20260904164107 72 65 1.0 2.0 0.00 0.00 0.00 77 1016.1
20260904163607 72 44 2.0 2.0 0.00 0.00 0.00 77 1016.1
20260904163102 72 195 0.0 3.0 0.00 0.00 0.00 78 1015.9
20260904162556 72 218 0.0 2.0 0.00 0.00 0.00 78 1016.1
20260904162052 71 354 1.0 2.0 0.00 0.00 0.00 79 1016.1
20260904161546 72 139 0.0 2.0 0.00 0.00 0.00 79 1016.2
20260904161041 71 179 0.0 2.0 0.00 0.00 0.00 81 1016.1
20260904160536 70 192 0.0 2.0 0.00 0.00 0.00 81 1016.1
20260904160033 70 79 0.0 2.0 0.00 0.00 0.00 82 1015.8
20260904155531 69 80 2.0 3.0 0.00 0.00 0.00 83 1016.1
20260904155026 69 195 0.0 1.0 0.00 0.00 0.00 85 1015.8
20260904154520 68 281 2.0 2.0 0.00 0.00 0.00 88 1015.8
20260904154015 67 4 1.0 1.0 0.00 0.00 0.00 90 1015.9
20260904153514 67 201 0.0 1.0 0.00 0.00 0.00 92 1015.7
20260904153011 66 248 0.0 1.0 0.00 0.00 0.00 93 1015.7
20260904152507 66 257 0.0 1.0 0.00 0.00 0.00 94 1015.8
20260904152002 65 216 1.0 2.0 0.00 0.00 0.00 94 1015.5
20260904151456 65 216 0.0 0.0 0.00 0.00 0.00 95 1015.6
20260904150950 65 220 0.0 0.0 0.00 0.00 0.00 95 1015.6
20260904150445 64 244 0.0 1.0 0.00 0.00 0.00 96 1015.7
20260904145944 64 212 0.0 0.0 0.00 0.00 0.00 96 1015.9
20260904145440 64 210 0.0 1.0 0.00 0.00 0.00 96 1015.6
20260904144935 64 225 0.0 2.0 0.00 0.00 0.00 96 1015.7
20260904144431 64 172 0.0 0.0 0.00 0.00 0.00 96 1015.8
20260904143926 64 232 0.0 1.0 0.00 0.00 0.00 96 1015.7
20260904143423 64 236 0.0 2.0 0.00 0.00 0.00 96 1015.6
20260904142919 63 250 0.0 1.0 0.00 0.00 0.00 96 1015.6
20260904142415 63 215 0.0 0.0 0.00 0.00 0.00 96 1015.6
20260904141914 63 29 1.0 2.0 0.00 0.00 0.00 96 1015.4
20260904141410 63 197 0.0 2.0 0.00 0.00 0.00 96 1015.3
20260904140906 63 173 1.0 2.0 0.00 0.00 0.00 96 1015.4
20260904140401 63 120 2.0 2.0 0.00 0.00 0.00 96 1015.3
20260904135900 63 229 0.0 1.0 0.00 0.00 0.00 96 1015.5
20260904135355 62 221 0.0 0.0 0.00 0.00 0.00 96 1015.6
20260904134852 62 246 0.0 0.0 0.00 0.00 0.00 96 1015.3
20260904134351 62 214 0.0 0.0 0.00 0.00 0.00 96 1015.4
20260904133851 62 223 0.0 0.0 0.00 0.00 0.00 96 1015.7
20260904133347 62 233 0.0 1.0 0.00 0.00 0.00 96 1015.4
20260904132847 61 225 0.0 0.0 0.00 0.00 0.00 96 1015.6
20260904132341 61 238 0.0 2.0 0.00 0.00 0.00 96 1015.7
20260904131836 61 230 0.0 2.0 0.00 0.00 0.00 96 1015.7
20260904131332 61 233 0.0 1.0 0.00 0.00 0.00 96 1015.5
20260904130831 61 224 0.0 0.0 0.00 0.00 0.00 96 1015.4
20260904130331 61 213 0.0 0.0 0.00 0.00 0.00 96 1015.6
20260904125826 61 210 0.0 0.0 0.00 0.00 0.00 96 1015.5
20260904125322 61 219 0.0 0.0 0.00 0.00 0.00 96 1015.3
20260904124821 61 218 0.0 0.0 0.00 0.00 0.00 96 1015.2
20260904124318 61 214 0.0 0.0 0.00 0.00 0.00 96 1015.1
20260904123813 61 211 0.0 0.0 0.00 0.00 0.00 96 1015.1
20260904123308 61 221 0.0 0.0 0.00 0.00 0.00 96 1015.2
20260904122803 61 211 0.0 0.0 0.00 0.00 0.00 96 1015.0
20260904122306 61 212 0.0 0.0 0.00 0.00 0.00 96 1015.3
20260904121758 61 216 0.0 0.0 0.00 0.00 0.00 96 1015.0
20260904121254 60 213 0.0 0.0 0.00 0.00 0.00 96 1015.0
20260904120750 60 210 0.0 0.0 0.00 0.00 0.00 96 1014.9
20260904120246 60 217 0.0 0.0 0.00 0.00 0.00 96 1014.9
20260904115741 60 213 0.0 0.0 0.00 0.00 0.00 96 1014.8
20260904115236 60 211 0.0 0.0 0.00 0.00 0.00 96 1014.7
20260904114731 60 203 0.0 1.0 0.00 0.00 0.00 96 1014.6
20260904114230 60 211 0.0 0.0 0.00 0.00 0.00 96 1014.4
20260904113726 60 211 0.0 0.0 0.00 0.00 0.00 96 1014.2
20260904113224 60 214 0.0 0.0 0.00 0.00 0.00 96 1014.4
20260904112720 60 211 0.0 0.0 0.00 0.00 0.00 96 1014.5
20260904112215 60 213 0.0 0.0 0.00 0.00 0.00 96 1014.1
20260904111711 60 217 0.0 0.0 0.00 0.00 0.00 96 1014.1
20260904111206 60 211 0.0 0.0 0.00 0.00 0.00 96 1014.2
20260904110702 60 217 0.0 0.0 0.00 0.00 0.00 96 1014.1
20260904110201 60 221 0.0 0.0 0.00 0.00 0.00 96 1014.0
20260904105655 60 214 0.0 0.0 0.00 0.00 0.00 96 1013.9
20260904105151 60 220 0.0 0.0 0.00 0.00 0.00 96 1014.0
20260904104646 60 221 0.0 0.0 0.00 0.00 0.00 96 1013.9
20260904104142 60 225 0.0 0.0 0.00 0.00 0.00 96 1013.8
20260904103638 60 228 0.0 1.0 0.00 0.00 0.00 96 1013.8
20260904103133 60 236 0.0 0.0 0.00 0.00 0.00 96 1013.9
20260904102629 60 222 0.0 0.0 0.00 0.00 0.00 96 1014.0
20260904102124 60 212 0.0 0.0 0.00 0.00 0.00 96 1013.8
20260904101621 60 217 0.0 0.0 0.00 0.00 0.00 95 1013.7
20260904101116 60 219 0.0 0.0 0.00 0.00 0.00 95 1013.9
20260904100612 59 223 0.0 0.0 0.00 0.00 0.00 95 1013.8
20260904100107 59 216 0.0 0.0 0.00 0.00 0.00 95 1013.8
20260904095601 59 218 0.0 0.0 0.00 0.00 0.00 95 1013.8
20260904095056 59 214 0.0 0.0 0.00 0.00 0.00 95 1013.7
20260904094551 59 214 0.0 0.0 0.00 0.00 0.00 95 1013.7
20260904094046 60 214 0.0 0.0 0.00 0.00 0.00 95 1013.3
20260904093543 60 214 0.0 0.0 0.00 0.00 0.00 95 1013.6
20260904093043 60 214 0.0 0.0 0.00 0.00 0.00 95 1013.4
20260904092538 60 216 0.0 0.0 0.00 0.00 0.00 95 1013.4
20260904092035 60 212 0.0 0.0 0.00 0.00 0.00 95 1013.3
20260904091531 60 212 0.0 0.0 0.00 0.00 0.00 95 1013.4
20260904091030 61 212 0.0 0.0 0.00 0.00 0.00 95 1013.4
20260904090526 61 212 0.0 0.0 0.00 0.00 0.00 95 1013.2
20260904090022 61 214 0.0 0.0 0.00 0.00 0.00 95 1013.0
20260904085517 60 212 0.0 0.0 0.00 0.00 0.00 95 1013.2
20260904085016 60 212 0.0 0.0 0.00 0.00 0.00 95 1013.2
20260904084512 60 212 0.0 0.0 0.00 0.00 0.00 95 1013.2
20260904084008 60 212 0.0 0.0 0.00 0.00 0.00 95 1013.1
20260904083504 60 213 0.0 0.0 0.00 0.00 0.00 95 1013.0
20260904082959 60 210 0.0 0.0 0.00 0.00 0.00 94 1013.1
20260904082454 60 234 0.0 0.0 0.00 0.00 0.00 94 1013.1
20260904081949 61 209 0.0 0.0 0.00 0.00 0.00 94 1012.9
20260904081444 61 208 0.0 0.0 0.00 0.00 0.00 94 1012.8
20260904080940 61 210 0.0 0.0 0.00 0.00 0.00 94 1012.6
20260904080436 61 210 0.0 0.0 0.00 0.00 0.00 94 1012.7
20260904075931 61 213 0.0 0.0 0.00 0.00 0.00 94 1012.7
20260904075427 61 206 0.0 0.0 0.00 0.00 0.00 94 1013.0
20260904074926 61 211 0.0 0.0 0.00 0.00 0.00 94 1012.7
20260904074421 61 208 0.0 0.0 0.00 0.00 0.00 94 1012.7
20260904073916 61 210 0.0 0.0 0.00 0.00 0.00 94 1012.6
20260904073412 61 195 0.0 0.0 0.00 0.00 0.00 94 1012.7
20260904072908 61 214 0.0 0.0 0.00 0.00 0.00 94 1012.9
20260904072403 62 210 0.0 0.0 0.00 0.00 0.00 93 1012.9
20260904071858 61 220 0.0 0.0 0.00 0.00 0.00 93 1012.6
20260904071353 61 217 0.0 0.0 0.00 0.00 0.00 93 1012.8
20260904070848 61 210 0.0 0.0 0.00 0.00 0.00 93 1012.8
20260904070346 61 210 0.0 0.0 0.00 0.00 0.00 93 1013.1
20260904065841 62 208 0.0 0.0 0.00 0.00 0.00 93 1013.0
20260904065338 62 214 0.0 0.0 0.00 0.00 0.00 93 1013.0
20260904064832 62 208 0.0 0.0 0.00 0.00 0.00 93 1013.2
20260904064329 62 209 0.0 0.0 0.00 0.00 0.00 92 1012.9
20260904063824 62 209 0.0 0.0 0.00 0.00 0.00 92 1012.9
20260904063320 62 209 0.0 0.0 0.00 0.00 0.00 92 1012.9
20260904062815 62 210 0.0 0.0 0.00 0.00 0.00 92 1012.9
20260904062311 62 209 0.0 0.0 0.00 0.00 0.00 92 1013.1
20260904061807 62 211 0.0 0.0 0.00 0.00 0.00 92 1013.1
20260904061302 63 210 0.0 0.0 0.00 0.00 0.00 91 1012.9
20260904060759 63 218 0.0 0.0 0.00 0.00 0.00 91 1013.0
20260904060255 63 213 0.0 0.0 0.00 0.00 0.00 91 1012.9
20260904055750 63 216 0.0 0.0 0.00 0.00 0.00 90 1013.0
20260904055250 64 213 0.0 0.0 0.00 0.00 0.00 90 1012.7
20260904054745 64 213 0.0 0.0 0.00 0.00 0.00 90 1012.7
20260904054241 64 216 0.0 0.0 0.00 0.00 0.00 90 1012.7
20260904053737 64 202 0.0 0.0 0.00 0.00 0.00 90 1012.7
20260904053231 64 309 0.0 0.0 0.00 0.00 0.00 89 1012.7
20260904052728 64 214 0.0 0.0 0.00 0.00 0.00 89 1012.7
20260904052223 64 213 0.0 0.0 0.00 0.00 0.00 88 1012.7
20260904051719 65 215 0.0 0.0 0.00 0.00 0.00 88 1012.5
20260904051214 65 211 0.0 0.0 0.00 0.00 0.00 88 1012.3
20260904050715 65 212 0.0 0.0 0.00 0.00 0.00 88 1012.4
20260904050211 65 215 0.0 0.0 0.00 0.00 0.00 88 1012.5
20260904045710 65 210 0.0 0.0 0.00 0.07 0.07 88 1012.5
20260904045205 65 214 0.0 0.0 0.00 0.07 0.07 87 1012.4
20260904044701 65 222 0.0 0.0 0.00 0.07 0.07 87 1012.4
20260904044157 65 211 0.0 0.0 0.00 0.07 0.07 87 1012.6
20260904043654 65 219 0.0 0.0 0.00 0.07 0.07 87 1012.3
20260904043149 65 214 0.0 0.0 0.00 0.07 0.07 87 1012.4
20260904042645 65 189 0.0 0.0 0.00 0.07 0.07 87 1012.4
20260904042140 65 214 0.0 0.0 0.00 0.07 0.07 87 1012.7
20260904041635 65 230 0.0 0.0 0.00 0.07 0.07 87 1012.5
20260904041132 66 213 0.0 0.0 0.00 0.07 0.07 87 1012.5
20260904040627 65 213 0.0 0.0 0.00 0.07 0.07 87 1012.4
20260904040123 65 214 0.0 0.0 0.00 0.07 0.07 87 1012.7
20260904035619 66 219 0.0 0.0 0.00 0.07 0.07 87 1012.4
20260904035119 65 215 0.0 0.0 0.00 0.07 0.07 87 1012.6
20260904034613 66 217 0.0 0.0 0.00 0.07 0.07 86 1012.5
20260904034108 66 217 0.0 0.0 0.00 0.07 0.07 86 1012.5
20260904033604 66 217 0.0 0.0 0.00 0.07 0.07 86 1012.5
20260904033102 66 217 0.0 0.0 0.00 0.07 0.07 86 1012.2
20260904032556 66 215 0.0 0.0 0.00 0.07 0.07 85 1012.2
20260904032055 66 215 0.0 0.0 0.00 0.07 0.07 85 1012.4
20260904031555 66 219 0.0 0.0 0.00 0.07 0.07 85 1012.4
20260904031051 66 214 0.0 0.0 0.00 0.07 0.07 84 1012.1
20260904030547 67 214 0.0 0.0 0.00 0.07 0.07 84 1012.2
20260904030042 67 212 0.0 0.0 0.00 0.07 0.07 83 1012.2
20260904025537 67 212 0.0 0.0 0.00 0.07 0.07 83 1012.4
20260904025038 67 212 0.0 0.0 0.00 0.07 0.07 82 1012.3
20260904024533 68 215 0.0 0.0 0.00 0.07 0.07 81 1011.8
20260904024029 68 208 0.0 2.0 0.00 0.07 0.07 81 1012.0
20260904023525 68 201 1.0 1.0 0.00 0.07 0.07 81 1011.8
20260904023020 68 229 0.0 2.0 0.00 0.07 0.07 80 1011.8
20260904022515 68 90 0.0 0.0 0.00 0.07 0.07 81 1011.3
20260904022012 68 218 0.0 2.0 0.00 0.07 0.07 81 1011.7
20260904021507 68 215 0.0 2.0 0.00 0.07 0.07 80 1011.3
20260904021002 68 68 2.0 2.0 0.00 0.07 0.07 80 1010.8
20260904020457 68 163 3.0 3.0 0.00 0.07 0.07 80 1010.7
20260904015956 68 203 0.0 0.0 0.00 0.07 0.07 81 1010.8
20260904015452 68 188 0.0 2.0 0.00 0.07 0.07 80 1010.7
20260904014950 68 180 1.0 2.0 0.00 0.07 0.07 80 1011.0
20260904014445 68 200 1.0 2.0 0.00 0.07 0.07 80 1011.0
20260904013941 69 112 3.0 6.0 0.00 0.07 0.07 80 1011.1
20260904013437 68 24 0.0 2.0 0.00 0.07 0.07 80 1011.1
20260904012933 68 198 0.0 1.0 0.00 0.07 0.07 80 1011.2
20260904012432 68 20 1.0 2.0 0.00 0.07 0.07 81 1011.3
20260904011927 68 204 0.0 1.0 0.00 0.07 0.07 81 1011.6
20260904011416 68 213 0.0 1.0 0.00 0.07 0.07 82 1011.3
20260904010911 68 151 0.0 1.0 0.00 0.07 0.07 81 1011.8
20260904010408 68 205 0.0 1.0 0.00 0.07 0.07 81 1011.3
20260904005902 69 207 0.0 0.0 0.00 0.07 0.07 82 1011.6
20260904005358 68 216 0.0 0.0 0.00 0.07 0.07 82 1011.7
20260904004853 68 212 0.0 0.0 0.00 0.07 0.07 83 1012.1
20260904004350 68 194 0.0 2.0 0.00 0.07 0.07 84 1012.2
20260904003849 68 213 0.0 0.0 0.00 0.07 0.07 84 1012.2
20260904003345 68 213 0.0 0.0 0.00 0.07 0.07 84 1012.1
20260904002840 68 213 0.0 0.0 0.00 0.07 0.07 83 1011.9
20260904002337 68 212 0.0 0.0 0.00 0.07 0.07 82 1011.4